Location: Asheville, NC
(35.6000°N, 82.5500°W)
Time: 04:24:30
(UTC-05:00)

Vanguard 2 - Pass Details

Date: 16 December 2017
Orbit: 552 x 2940 km, 32.9° (Epoch: 17 January)

Event Time Altitude Azimuth Distance (km) Brightness Sun altitude
Rises 12:31:39 0° 216° (SW) 6,245 12.9 31.0°
Reaches altitude 10° 12:37:01 10° 207° (SSW) 4,878 12.8 31.0°
Maximum altitude 12:47:15 28° 156° (SSE) 2,812 11.8 30.8°
Drops below altitude 10° 12:54:15 10° 100° (E) 3,276 10.9 30.7°
Sets 12:57:03 0° 89° (E) 3,944 11.1 30.6°
